Location: Unspecified
(39.5434°N, 0.0000°E)
Time: 04:00:04
(UTC+00:00)

Cosmos 1844 Rocket - Visible Passes

Search period start: 05 April 2026 00:00
Search period end: 15 April 2026 00:00
Orbit: 823 x 843 km, 71.0° (Epoch: 29 March)

Date Brightness Start Highest point End Pass type
(mag) Time Alt. Az. Time Alt. Az. Time Alt. Az.
5 Apr 2.7 20:22:06 10° NNW 20:27:42 78° WSW 20:29:48 39° S visible
6 Apr 2.6 20:04:29 10° NNW 20:10:06 86° WSW 20:13:14 27° SSE visible
7 Apr 2.6 19:46:52 10° NNW 19:52:29 85° ENE 19:56:46 18° SSE visible
7 Apr 5.3 21:33:53 10° W 21:35:28 11° W 21:37:04 10° WSW visible
8 Apr 2.6 19:29:17 10° NNW 19:34:52 77° ENE 19:40:22 10° SSE visible
8 Apr 5.2 21:15:35 10° WNW 21:17:56 13° W 21:20:17 10° WSW visible
9 Apr 2.7 19:11:40 10° NNW 19:17:15 70° ENE 19:22:46 10° SSE visible
9 Apr 5.2 20:57:30 10° WNW 21:00:24 14° W 21:03:18 10° SW visible
10 Apr 2.7 18:54:05 10° NNW 18:59:37 63° ENE 19:05:06 10° SE visible
10 Apr 5.2 20:39:32 10° WNW 20:42:51 16° W 20:46:11 10° SW visible
11 Apr 5.1 20:21:37 10° WNW 20:25:19 18° W 20:28:59 10° SW visible
12 Apr 5.0 20:03:46 10° NW 20:07:46 20° W 20:11:44 10° SSW visible
13 Apr 5.0 19:45:57 10° NW 19:50:12 23° W 19:54:26 10° SSW visible
14 Apr 4.9 19:28:09 10° NW 19:32:39 25° WSW 19:37:06 10° SSW visible
